Dewpoint
35 30 26 26 27 27 26 25 24 24 25 25 25 24 24 24 24 25 27 26 25 25 26 27 36 40 44 48 50 50 63 63 63 62 62 61 60 60 60 59 58 58 58 57
28 27 28 29 28 27 27 26 25 27 27 25 26 25 26 25 25 24 25 27 28 27 28 30 39 42 44 45 47 49 63 63 62 62 61 61 61 60 59 59 58 58 58 57
26 25 28 28 28 27 27 27 26 26 28 30 27 26 26 27 28 28 29 30 32 26 27 32 37 40 45 46 48 52 63 62 62 62 61 61 61 60 59 59 58 57 57 57
28 29 27 27 26 27 25 26 27 29 29 22 27 18 21 24 27 28 29 28 29 29 38 38 39 41 45 47 49 58 62 62 62 61 60 60 59 58 58 58 57 57 56 55
28 27 27 27 26 29 27 29 30 31 29 27 24 23 23 33 31 30 30 27 28 33 40 41 41 43 46 48 50 58 62 61 61 61 60 60 59 58 58 58 57 56 55 54
30 32 30 29 28 29 29 32 32 33 29 21 21 25 25 32 33 33 29 29 35 40 40 41 44 44 45 49 50 51 61 60 60 60 60 59 59 58 58 57 56 55 54 54
28 27 31 32 29 32 33 30 23 21 22 19 29 29 30 35 34 34 31 30 36 41 40 42 45 47 47 48 52 60 60 60 60 60 60 59 59 59 57 57 56 55 53 53
25 20 25 28 27 25 28 29 25 17 16 19 26 25 28 27 27 38 42 34 37 39 41 45 47 48 49 54 59 59 59 59 60 60 60 60 59 59 58 57 57 56 54 53
26 25 27 21 25 31 28 25 30 27 27 25 24 25 23 24 24 27 43 41 37 39 41 47 48 50 54 55 59 59 59 60 60 60 60 59 59 59 58 58 57 57 56 53
31 23 24 26 24 22 29 31 27 25 20 18 21 23 18 23 23 26 43 39 36 40 47 48 48 50 51 58 59 60 60 59 60 60 60 59 59 59 58 58 57 57 57 55
31 29 23 22 20 20 25 29 31 29 28 23 20 20 23 25 27 25 43 46 46 49 48 51 52 56 56 58 59 59 59 59 59 60 60 59 59 59 58 58 58 58 57 56
34 29 21 21 21 28 23 30 31 26 23 26 25 23 24 27 32 29 44 45 50 49 50 53 51 55 55 58 58 59 59 59 59 60 60 60 60 59 58 58 58 58 56 56
30 26 18 13 18 25 23 21 21 25 29 25 23 20 25 25 27 33 36 46 49 51 51 53 53 52 54 55 57 58 58 59 59 59 59 60 60 59 59 58 58 58 57 56
31 27 21 16 18 21 20 20 20 22 22 22 24 24 25 26 26 33 37 42 48 49 50 51 52 53 55 54 57 58 58 59 59 59 59 59 59 60 59 58 58 58 57 56
31 23 23 24 24 22 21 21 20 19 19 21 21 22 23 25 26 32 29 36 39 45 48 49 50 51 51 53 54 57 58 58 59 58 58 58 59 60 60 59 58 58 58 57
31 23 23 21 21 21 19 20 21 22 22 21 21 22 24 26 25 24 24 25 25 25 37 37 38 50 51 51 51 53 53 55 59 58 58 58 58 59 59 58 58 58 58 58
28 25 22 16 19 20 15 15 18 25 24 24 25 25 24 24 22 21 22 23 23 24 25 30 34 36 38 41 50 52 54 55 55 58 58 57 58 58 58 58 58 58 58 58
25 25 23 17 18 10 10 26 27 26 27 27 27 24 21 21 21 21 22 23 23 24 25 27 31 34 37 40 42 48 52 55 55 54 56 56 57 57 57 57 57 57 57 57
26 25 20 16 15 15 16 27 26 25 24 29 28 29 28 21 22 19 21 22 23 24 26 29 33 35 36 36 39 44 46 48 54 55 56 57 57 57 56 56 56 56 57 57
26 28 22 18 14 10 20 21 23 28 21 30 29 28 29 23 19 19 21 21 22 24 27 31 32 31 32 33 37 40 41 42 39 41 45 50 54 56 55 56 56 54 56 54
18 20 17 16 15 15 24 27 27 18 20 29 28 29 28 26 26 22 22 21 21 23 26 29 29 29 29 31 35 36 36 34 35 37 39 41 44 48 51 50 49 50 49 47
19 16 15 16 14 11 29 26 21 22 27 25 25 26 28 30 30 29 24 21 20 20 23 26 26 26 27 29 33 32 31 32 33 34 36 36 38 40 42 44 42 42 42 41
18 22 19 21 19 28 22 20 21 22 22 20 18 19 21 27 27 27 28 28 22 19 20 23 24 24 24 27 28 30 29 30 31 32 32 33 34 36 37 39 39 39 39 38
22 26 22 24 21 20 17 19 17 18 17 15 19 21 22 22 20 23 26 24 25 22 19 21 21 22 21 23 25 26 27 28 29 30 30 32 33 32 34 35 35 36 36 35
17 21 17 23 17 19 17 13 13 14 16 14 15 19 20 20 21 22 23 22 24 24 21 19 20 20 20 20 20 25 26 27 27 27 28 29 30 31 31 32 33 33 34 35
11 8 9 11 10 9 15 14 12 11 11 12 14 14 15 17 15 16 17 20 22 24 25 19 19 19 20 19 19 20 23 25 26 26 27 28 28 29 30 31 32 35 35 35
Wind_Speed
9 8 22 23 26 26 27 30 35 44 39 29 34 45 43 39 32 33 31 34 39 42 40 29 26 23 24 25 28 27 35 33 30 29 30 27 27 22 21 20 21 22 19 19
7 23 31 22 24 26 27 32 44 47 35 22 31 45 42 38 37 36 37 35 33 37 34 30 28 27 26 25 28 37 43 37 32 29 28 27 27 24 22 20 19 20 22 20
18 15 5 10 20 21 29 33 40 40 47 34 37 54 47 45 48 45 40 37 33 37 35 34 26 25 25 32 34 35 37 41 34 30 26 24 22 20 19 22 20 21 24 22
15 21 17 18 26 18 29 28 30 31 28 24 10 33 45 29 40 35 40 35 35 35 28 30 28 26 32 29 28 40 39 40 34 31 30 31 25 28 24 28 23 22 23 21
11 14 13 19 25 11 25 22 24 32 34 27 37 14 18 13 18 17 20 25 32 34 29 30 31 34 31 18 29 27 34 37 36 33 31 29 27 25 24 22 24 23 20 20
28 12 13 16 19 19 21 19 28 26 12 10 21 11 13 11 16 12 17 24 26 26 30 27 27 25 15 20 31 56 42 38 36 34 31 33 30 26 24 23 25 22 20 19
8 16 10 14 9 4 3 13 14 5 4 15 10 13 12 20 20 20 24 29 30 29 26 24 24 17 23 34 55 50 48 39 36 34 33 33 31 29 30 28 25 24 22 21
5 10 3 1 6 15 20 11 9 12 14 29 28 7 7 14 17 16 18 28 29 29 29 33 33 27 19 29 33 39 38 38 37 32 34 29 28 26 25 27 25 23 23 22
6 7 16 27 13 7 7 12 7 8 15 10 10 6 7 35 30 27 25 11 24 28 24 25 23 6 13 30 36 37 37 35 35 32 32 30 28 26 25 25 24 22 20 19
4 13 12 15 16 15 14 7 7 5 8 12 11 14 17 33 35 27 29 2 10 18 22 19 23 23 19 20 24 29 30 33 33 30 30 28 29 27 26 25 26 25 21 22
5 8 8 12 6 17 7 9 7 7 7 8 10 10 18 27 24 24 17 16 10 16 19 20 22 21 35 20 24 26 29 29 30 30 26 28 28 27 25 26 26 25 23 24
2 5 8 14 28 11 14 6 8 8 10 10 6 11 17 21 22 22 19 18 9 14 18 17 23 18 13 12 24 22 23 24 25 24 24 24 26 26 26 25 26 25 26 25
3 3 13 13 5 9 6 15 15 15 11 9 10 9 16 27 29 26 19 17 12 13 10 10 17 20 26 17 24 25 23 21 22 22 23 21 22 26 27 28 27 25 26 24
2 4 10 16 17 17 25 32 25 14 15 17 21 23 24 27 33 22 20 16 6 6 5 1 10 15 14 22 15 22 24 23 22 23 24 25 24 24 27 25 26 24 24 25
4 9 16 19 19 21 26 28 34 26 24 19 31 29 29 26 19 18 20 23 22 20 13 3 5 4 13 19 10 18 19 20 22 24 25 26 25 23 24 23 24 23 23 24
6 10 6 20 19 22 28 30 26 28 29 26 28 36 21 7 10 19 21 22 21 21 18 21 26 9 4 11 9 9 8 6 14 21 22 22 24 22 21 24 25 25 25 24
6 6 4 21 7 14 18 16 11 7 10 8 12 16 20 11 15 18 20 19 20 22 18 18 19 19 20 17 9 8 10 13 16 14 21 23 23 23 23 23 24 25 26 24
16 8 4 15 7 8 8 7 7 5 7 13 12 20 19 10 12 16 17 16 19 19 18 16 13 15 18 18 16 12 6 14 17 17 19 25 22 26 23 22 24 24 23 25
21 12 6 5 6 13 14 6 5 7 3 12 13 17 23 15 5 17 19 16 15 16 18 16 14 13 15 17 18 14 10 12 9 16 21 22 28 23 26 25 24 22 20 20
2 9 8 4 4 5 1 12 13 7 4 14 15 19 22 24 12 10 15 14 17 15 13 16 16 15 14 17 17 13 10 10 13 11 5 2 9 19 24 24 22 17 19 18
2 2 9 14 7 9 7 15 11 3 6 16 17 15 17 9 10 11 13 14 14 14 16 14 13 14 15 16 15 10 10 12 10 14 9 8 5 4 11 15 12 16 16 15
4 5 6 3 4 6 11 5 4 8 8 14 15 17 15 11 12 14 18 18 18 18 17 18 16 15 14 14 10 11 13 12 9 6 10 9 8 5 4 13 13 15 18 18
5 5 3 5 2 9 15 15 10 13 8 14 16 17 17 12 10 11 13 17 20 17 15 13 12 13 15 16 13 9 11 10 8 10 11 8 8 9 9 12 12 13 13 18
1 1 3 2 5 10 14 9 18 17 16 17 16 14 16 15 14 13 13 13 14 17 16 13 12 12 12 11 10 9 9 8 9 10 8 7 10 12 13 13 10 11 11 13
4 10 7 4 7 2 15 16 16 17 16 18 18 14 15 16 15 15 14 14 14 14 16 12 10 9 9 9 10 8 7 6 8 9 9 9 10 13 15 15 13 12 10 9
9 7 5 2 6 7 8 15 17 17 18 18 19 19 17 15 16 16 14 14 14 15 14 13 9 7 7 8 9 10 7 6 7 8 7 9 11 11 13 15 19 20 18 19
Wind_Direction
190 215 231 229 217 241 268 273 275 274 274 281 273 269 268 269 253 243 236 239 239 244 245 231 218 233 242 227 240 284 180 170 162 162 160 161 163 164 168 169 163 160 156 158
242 245 249 243 239 243 250 269 274 279 280 268 282 273 269 266 259 242 238 240 235 240 248 229 206 208 230 243 245 284 175 167 166 163 165 165 162 166 163 168 166 151 160 162
232 233 247 247 251 254 257 257 271 274 292 275 270 274 275 269 257 245 235 233 236 228 237 236 220 218 200 244 226 276 176 167 165 161 158 156 159 154 161 168 168 160 161 169
248 255 256 259 259 247 266 265 263 277 293 282 166 286 290 279 273 239 231 222 225 217 209 213 218 211 230 226 214 233 176 162 163 162 165 160 163 164 170 171 172 164 162 166
259 279 281 268 255 217 256 284 277 276 276 283 279 242 273 298 295 240 221 226 213 212 202 210 214 210 203 220 238 250 165 163 164 167 169 165 168 168 165 164 159 162 167 167
253 260 274 243 269 239 261 302 294 278 272 259 268 229 285 325 293 293 208 210 214 206 205 210 219 203 210 222 245 249 162 164 163 163 171 175 171 165 160 161 161 165 168 170
287 268 243 220 274 241 300 312 312 315 274 288 299 306 277 288 287 255 217 218 207 203 208 206 216 202 194 224 248 162 158 161 164 164 173 175 173 166 168 165 166 164 171 179
270 315 21 66 257 285 276 267 282 314 309 300 305 297 321 329 331 318 268 213 205 209 192 189 198 200 194 234 153 160 154 160 162 167 168 173 164 167 173 174 171 173 178 182
291 250 326 305 310 315 310 281 269 269 269 272 287 308 320 344 358 356 348 253 186 185 192 191 207 160 209 208 169 162 158 162 162 168 168 171 167 172 176 177 175 173 178 178
283 292 252 298 312 288 220 303 308 302 312 309 311 321 342 355 347 352 1 102 158 166 170 176 185 185 198 182 162 147 159 163 163 169 169 170 171 176 179 178 180 179 177 178
292 232 302 335 291 306 314 318 317 286 260 295 321 324 357 353 349 359 4 3 135 149 165 170 162 154 174 180 148 148 158 163 168 171 167 169 173 176 179 182 180 178 174 178
302 306 290 288 287 329 257 41 4 316 324 296 279 292 14 357 356 17 8 4 55 158 151 150 159 147 161 146 151 151 152 161 168 170 169 168 173 177 177 181 181 179 179 181
330 300 314 328 339 9 338 312 327 318 288 283 272 270 5 10 1 8 25 6 24 83 89 161 173 159 166 166 163 160 160 165 169 173 174 175 173 177 180 182 183 181 180 180
208 228 241 270 281 294 301 303 309 302 290 298 275 298 324 350 339 353 12 18 28 65 111 79 145 174 159 154 167 161 164 171 175 177 182 187 186 182 185 185 181 179 176 181
230 262 249 255 271 285 282 283 294 290 274 264 286 288 294 319 327 351 355 24 33 25 2 282 187 186 123 134 157 154 170 172 177 184 190 191 194 189 187 178 179 177 178 183
200 261 266 278 272 271 279 275 272 278 277 270 268 280 296 328 10 12 8 14 24 25 27 7 16 355 167 152 164 166 174 177 183 183 185 187 193 189 180 177 177 179 186 188
243 243 237 279 315 322 292 276 269 318 35 334 297 323 355 47 38 19 7 10 10 5 12 15 4 357 3 15 10 203 196 186 213 202 196 197 196 192 187 184 182 187 190 193
243 224 251 279 326 269 243 23 52 142 52 19 359 355 357 93 79 37 21 13 9 359 3 3 9 346 5 352 9 13 20 205 202 212 228 200 205 193 187 191 193 195 194 193
225 226 237 235 223 290 305 23 15 3 353 8 5 1 349 336 195 34 13 15 19 6 349 353 356 22 10 355 353 358 24 9 217 209 201 202 194 189 181 187 190 191 191 193
89 214 210 198 235 255 41 323 303 233 280 1 5 8 7 14 51 2 358 10 12 15 6 1 3 15 9 359 349 2 31 42 11 4 14 125 205 199 181 184 185 183 186 187
182 186 222 242 250 274 322 317 308 250 351 349 1 7 3 20 356 340 5 18 22 15 6 13 16 20 4 356 357 1 39 32 10 338 18 43 59 2 161 153 160 164 159 146
222 189 217 188 215 280 349 355 61 331 1 7 3 359 350 345 359 360 0 10 14 15 10 11 14 15 5 6 4 19 21 12 17 1 39 28 48 48 122 139 132 133 137 133
254 217 297 215 271 49 50 70 29 10 5 1 353 350 358 6 2 1 1 4 359 8 10 14 23 19 12 13 16 20 8 12 26 40 35 26 50 71 71 105 121 127 129 138
289 331 253 322 21 73 50 40 26 15 6 349 347 343 350 350 357 358 357 1 2 354 1 5 19 31 27 18 21 19 6 31 52 68 57 43 64 70 71 81 95 116 130 133
337 324 337 228 46 135 61 39 8 358 358 349 345 345 351 347 345 343 339 344 346 348 350 359 11 21 23 21 31 24 30 48 64 64 64 59 62 72 78 71 76 85 79 119
3 1 347 322 18 309 297 8 7 359 350 342 338 342 349 347 341 337 333 331 331 335 346 352 1 9 17 27 26 22 30 63 86 87 80 79 73 69 78 88 83 76 91 100